EN

Hourly Weather Abdulgazino

Today, 14 June, Monday

Time Temperature Precipitation Wind Pressure Humidity
00:00 +16°C° 0 mm 2 mps 714 mmHg 53%
01:00 +16°C° 0 mm 2 mps 714 mmHg 52%
02:00 +16°C° 0 mm 2 mps 714 mmHg 53%
03:00 +16°C° 0 mm 1 mps 715 mmHg 55%
04:00 +15°C° 0 mm 1 mps 715 mmHg 54%
05:00 +18°C° 0 mm 1 mps 715 mmHg 52%
06:00 +19°C° 0 mm 1 mps 715 mmHg 50%
07:00 +20°C° 0 mm 1 mps 716 mmHg 48%
08:00 +21°C° 0 mm 2 mps 716 mmHg 43%
09:00 +22°C° 0 mm 3 mps 716 mmHg 38%
10:00 +25°C° 0 mm 3 mps 716 mmHg 33%
11:00 +26°C° 0 mm 4 mps 716 mmHg 32%
12:00 +26°C° 0 mm 4 mps 716 mmHg 31%
13:00 +27°C° 0 mm 5 mps 716 mmHg 30%
14:00 +27°C° 0 mm 4 mps 716 mmHg 31%
15:00 +27°C° 0 mm 4 mps 716 mmHg 31%
16:00 +27°C° 0 mm 4 mps 716 mmHg 31%
17:00 +26°C° 0 mm 3 mps 716 mmHg 39%
18:00 +25°C° 0 mm 2 mps 715 mmHg 47%
19:00 +23°C° 0 mm 2 mps 715 mmHg 55%
20:00 +20°C° 0 mm 2 mps 715 mmHg 56%
21:00 +19°C° 0 mm 2 mps 715 mmHg 57%
22:00 +18°C° 0 mm 1 mps 714 mmHg 58%
23:00 +18°C° 0 mm 1 mps 714 mmHg 57%

Tomorrow, 15 June, Tuesday

Time Temperature Precipitation Wind Pressure Humidity
00:00 +16°C° 0 mm 1 mps 714 mmHg 55%
01:00 +16°C° 0 mm 1 mps 714 mmHg 53%
02:00 +16°C° 0 mm 1 mps 714 mmHg 54%
03:00 +16°C° 0 mm 1 mps 714 mmHg 54%
04:00 +16°C° 0 mm 1 mps 714 mmHg 54%
05:00 +17°C° 0 mm 2 mps 714 mmHg 54%
06:00 +19°C° 0 mm 2 mps 714 mmHg 54%
07:00 +21°C° 0 mm 2 mps 714 mmHg 53%
08:00 +24°C° 0 mm 3 mps 714 mmHg 48%
09:00 +25°C° 0 mm 3 mps 714 mmHg 42%
10:00 +27°C° 0 mm 4 mps 715 mmHg 37%
11:00 +28°C° 0 mm 4 mps 714 mmHg 35%
12:00 +28°C° 0 mm 4 mps 714 mmHg 34%
13:00 +29°C° 0 mm 4 mps 714 mmHg 32%
14:00 +28°C° 0 mm 4 mps 714 mmHg 36%
15:00 +28°C° 0 mm 3 mps 713 mmHg 39%
16:00 +27°C° 0 mm 3 mps 713 mmHg 42%
17:00 +26°C° 0 mm 2 mps 713 mmHg 46%
18:00 +25°C° 0 mm 2 mps 713 mmHg 50%
19:00 +23°C° 0 mm 1 mps 712 mmHg 53%
20:00 +22°C° 0 mm 1 mps 712 mmHg 55%
21:00 +21°C° 0 mm 1 mps 712 mmHg 56%
22:00 +18°C° 0 mm 0 mps 712 mmHg 57%
23:00 +17°C° 0 mm 0 mps 712 mmHg 58%

Day after tomorrow, 16 June, Wednesday

Time Temperature Precipitation Wind Pressure Humidity
00:00 +17°C° 0 mm 0 mps 712 mmHg 59%
01:00 +16°C° 0 mm 0 mps 712 mmHg 60%
02:00 +17°C° 0 mm 0 mps 712 mmHg 59%
03:00 +17°C° 0 mm 0 mps 712 mmHg 59%
04:00 +17°C° 0 mm 0 mps 712 mmHg 58%
05:00 +21°C° 0 mm 1 mps 712 mmHg 56%
06:00 +22°C° 0 mm 1 mps 712 mmHg 54%
07:00 +24°C° 0 mm 2 mps 712 mmHg 52%
08:00 +25°C° 0 mm 2 mps 712 mmHg 46%
09:00 +27°C° 0 mm 3 mps 712 mmHg 41%
10:00 +29°C° 0 mm 4 mps 712 mmHg 35%
11:00 +29°C° 0 mm 4 mps 712 mmHg 38%
12:00 +28°C° 0 mm 3 mps 712 mmHg 40%
13:00 +28°C° 0 mm 3 mps 712 mmHg 43%
14:00 +25°C° 0.4 mm 3 mps 711 mmHg 54%
15:00 +21°C° 0.4 mm 3 mps 711 mmHg 65%
16:00 +19°C° 0.4 mm 3 mps 711 mmHg 77%
17:00 +19°C° 0.1 mm 4 mps 711 mmHg 75%
18:00 +19°C° 0.1 mm 5 mps 711 mmHg 74%
19:00 +20°C° 0.1 mm 5 mps 711 mmHg 73%
20:00 +18°C° 0.2 mm 4 mps 711 mmHg 76%
21:00 +17°C° 0.2 mm 3 mps 710 mmHg 80%
22:00 +16°C° 0.2 mm 1 mps 710 mmHg 83%
23:00 +15°C° 0 mm 1 mps 710 mmHg 82%

17 June, Thursday

Time Temperature Precipitation Wind Pressure Humidity
00:00 +15°C° 0 mm 1 mps 709 mmHg 81%
01:00 +15°C° 0 mm 1 mps 708 mmHg 80%
02:00 +15°C° 0 mm 1 mps 708 mmHg 79%
03:00 +15°C° 0 mm 2 mps 708 mmHg 78%
04:00 +15°C° 0 mm 2 mps 707 mmHg 78%
05:00 +17°C° 0 mm 2 mps 707 mmHg 73%
06:00 +19°C° 0 mm 2 mps 707 mmHg 69%
07:00 +21°C° 0 mm 2 mps 707 mmHg 65%
08:00 +24°C° 0 mm 3 mps 707 mmHg 56%
09:00 +26°C° 0 mm 4 mps 707 mmHg 48%
10:00 +28°C° 0 mm 5 mps 706 mmHg 39%
11:00 +28°C° 0 mm 5 mps 706 mmHg 38%
12:00 +29°C° 0 mm 4 mps 706 mmHg 37%
13:00 +30°C° 0 mm 4 mps 706 mmHg 36%
14:00 +29°C° 0 mm 4 mps 706 mmHg 40%
15:00 +28°C° 0 mm 5 mps 705 mmHg 43%
16:00 +28°C° 0 mm 5 mps 705 mmHg 47%
17:00 +25°C° 0.1 mm 5 mps 705 mmHg 59%
18:00 +22°C° 0.1 mm 6 mps 705 mmHg 70%
19:00 +20°C° 0.1 mm 6 mps 705 mmHg 82%
20:00 +17°C° 0 mm 5 mps 705 mmHg 85%
21:00 +17°C° 0 mm 4 mps 706 mmHg 88%
22:00 +14°C° 0 mm 3 mps 706 mmHg 91%
23:00 +14°C° 0 mm 3 mps 706 mmHg 88%

18 June, Friday

Time Temperature Precipitation Wind Pressure Humidity
00:00 +14°C° 0 mm 3 mps 706 mmHg 86%
01:00 +14°C° 0 mm 3 mps 706 mmHg 83%
02:00 +13°C° 0 mm 3 mps 707 mmHg 79%
03:00 +12°C° 0 mm 3 mps 707 mmHg 74%
04:00 +11°C° 0 mm 3 mps 707 mmHg 70%
05:00 +11°C° 0 mm 3 mps 707 mmHg 66%
06:00 +12°C° 0 mm 3 mps 708 mmHg 62%
07:00 +13°C° 0 mm 4 mps 708 mmHg 57%
08:00 +14°C° 0 mm 4 mps 708 mmHg 51%
09:00 +15°C° 0 mm 4 mps 709 mmHg 44%
10:00 +16°C° 0 mm 5 mps 709 mmHg 38%
11:00 +17°C° 0 mm 5 mps 709 mmHg 36%
12:00 +19°C° 0 mm 5 mps 710 mmHg 34%
13:00 +19°C° 0 mm 6 mps 710 mmHg 32%
14:00 +19°C° 0 mm 6 mps 710 mmHg 31%
15:00 +19°C° 0 mm 6 mps 711 mmHg 31%
16:00 +19°C° 0 mm 6 mps 711 mmHg 31%
17:00 +17°C° 0 mm 6 mps 711 mmHg 35%
18:00 +16°C° 0 mm 5 mps 712 mmHg 39%
19:00 +14°C° 0 mm 4 mps 712 mmHg 43%
20:00 +13°C° 0 mm 4 mps 712 mmHg 49%
21:00 +11°C° 0 mm 3 mps 713 mmHg 55%
22:00 +9°C° 0 mm 2 mps 713 mmHg 61%
23:00 +8°C° 0 mm 2 mps 713 mmHg 66%

19 June, Saturday

Time Temperature Precipitation Wind Pressure Humidity
00:00 +8°C° 0 mm 2 mps 714 mmHg 70%
01:00 +8°C° 0 mm 1 mps 714 mmHg 74%
02:00 +8°C° 0 mm 1 mps 714 mmHg 78%
03:00 +7°C° 0 mm 1 mps 714 mmHg 81%
04:00 +7°C° 0 mm 1 mps 714 mmHg 85%
05:00 +8°C° 0 mm 2 mps 714 mmHg 77%
06:00 +10°C° 0 mm 3 mps 715 mmHg 69%
07:00 +12°C° 0 mm 3 mps 715 mmHg 61%
08:00 +14°C° 0 mm 4 mps 715 mmHg 54%
09:00 +15°C° 0 mm 4 mps 715 mmHg 47%
10:00 +16°C° 0 mm 5 mps 716 mmHg 41%
11:00 +17°C° 0 mm 5 mps 715 mmHg 41%
12:00 +17°C° 0 mm 5 mps 715 mmHg 40%
13:00 +19°C° 0 mm 5 mps 715 mmHg 40%
14:00 +19°C° 0 mm 5 mps 715 mmHg 42%
15:00 +19°C° 0 mm 5 mps 715 mmHg 43%
16:00 +19°C° 0 mm 5 mps 715 mmHg 44%
17:00 +19°C° 0 mm 5 mps 714 mmHg 51%
18:00 +17°C° 0 mm 5 mps 714 mmHg 57%
19:00 +16°C° 0 mm 5 mps 714 mmHg 63%
20:00 +16°C° 0 mm 5 mps 714 mmHg 65%
21:00 +15°C° 0 mm 5 mps 713 mmHg 66%
22:00 +15°C° 0 mm 5 mps 713 mmHg 68%
23:00 +14°C° 0 mm 5 mps 713 mmHg 73%
Show more